Flag for Norway Weather past 2 weeks in Tønsberg, Norway

Now
46 °F

Scattered showers. Scattered clouds.


Feels Like: 39 °F
Forecast: 24 / 41 °F
Wind: 17 mph from Southwest

Location: Oseberg

Current Time: Mar 27, 2015 at 2:20:00 PM

Latest Report: Mar 27, 2015 at 1:50 PM


Visibility: N/A

Pressure: 29.80 "Hg

Humidity: 71%

Dew point: 37 °F

Location of TønsbergLocation

Historic Weather in Tønsberg — Graph

°F

Tønsberg temperature yesterday

Maximum temperature yesterday: 41 °F (at 12:20 AM)
Minimum temperature yesterday: 37 °F (at 8:50 AM)
Average temperature yesterday: 39 °F

Past Weeks' High & Low Weather Summary

 TemperatureHumidityPressure
High48 °F (Mar 15, 2:50 PM)100% (Mar 19, 3:50 PM)30.77 "Hg (Mar 19, 3:50 PM)
Low37 °F (Mar 26, 8:50 AM)49% (Mar 15, 5:20 PM)29.39 "Hg (Mar 23, 6:50 AM)
Average43 °F76%30.20 "Hg
* Reported Mar 12 12:20 PM — Mar 27 12:50 PM, Tønsberg, Weather by CustomWeather, © 2015

Note: Actual official high and low records may vary slightly from our data, if they occured in-between our weather recording intervals... More about our weather records

Advertising

Tønsberg weather history for previous 24 hours

 ConditionsComfort  
Time TempWeatherWind HumidityBarometerVisibility
12:50 PM
Fri, Mar 27
45 °FScattered showers. Scattered clouds.20 mph76%29.80 "HgN/A
11:50 AM43 °FScattered clouds.24 mph81%29.77 "HgN/A
11:20 AM45 °FScattered showers. Scattered clouds.18 mph76%29.80 "HgN/A
10:50 AM43 °FScattered showers. Scattered clouds.20 mph76%29.80 "HgN/A
10:20 AM45 °FScattered showers. Scattered clouds.15 mph71%29.80 "HgN/A
9:50 AM43 °FScattered clouds.14 mph76%29.77 "HgN/A
9:20 AM43 °FScattered clouds.14 mph76%29.77 "HgN/A
8:50 AM43 °FScattered clouds.13 mph76%29.77 "HgN/A
8:20 AM41 °FScattered clouds.12 mph81%29.77 "HgN/A
7:50 AM41 °FScattered clouds.13 mph81%29.77 "HgN/A
7:20 AM41 °FScattered showers. Scattered clouds.13 mph81%29.77 "HgN/A
6:50 AM41 °FScattered showers. Scattered clouds.14 mph81%29.77 "HgN/A
6:20 AM41 °FScattered clouds.12 mph76%29.77 "HgN/A
5:50 AM41 °FPartly cloudy.12 mph81%29.74 "HgN/A
5:20 AM41 °FPartly cloudy.12 mph76%29.74 "HgN/A
4:50 AM41 °FPassing clouds.13 mph76%29.74 "HgN/A
3:50 AM39 °FPassing clouds.9 mph75%29.74 "HgN/A
2:50 AM39 °FPassing clouds.9 mph75%29.74 "HgN/A
1:50 AM39 °FPassing clouds.8 mph70%29.71 "HgN/A
12:50 AM39 °FPassing clouds.9 mph70%29.71 "HgN/A
11:50 PM
Thu, Mar 26
39 °FPassing clouds.12 mph70%29.71 "HgN/A
10:50 PM39 °FPassing clouds.12 mph65%29.68 "HgN/A
9:50 PM39 °FPassing clouds.13 mph70%29.65 "HgN/A
8:50 PM39 °FPassing clouds.12 mph70%29.65 "HgN/A
8:20 PM39 °FPassing clouds.13 mph70%29.62 "HgN/A
7:50 PM39 °FPassing clouds.13 mph70%29.62 "HgN/A
7:20 PM39 °FPassing clouds.14 mph70%29.62 "HgN/A
6:50 PM39 °FPassing clouds.14 mph70%29.62 "HgN/A
6:20 PM41 °FScattered showers. Scattered clouds.13 mph70%29.62 "HgN/A
5:50 PM39 °FBroken clouds.15 mph75%29.59 "HgN/A
4:50 PM41 °FScattered clouds.13 mph70%29.59 "HgN/A
4:20 PM39 °FBroken clouds.16 mph75%29.56 "HgN/A
3:50 PM39 °FScattered showers. Scattered clouds.15 mph70%29.56 "HgN/A
3:20 PM39 °FScattered showers. Broken clouds.16 mph70%29.56 "HgN/A
2:50 PM39 °FScattered showers. Scattered clouds.16 mph75%29.56 "HgN/A
2:20 PM39 °FPartly sunny.17 mph75%29.56 "HgN/A
Weather by CustomWeather, © 2015

See weather overviewHow to use our weather pages